Location: Albuquerque Trailhead
(34.7934°N, 106.3736°W)
Time: 05:42:49
(UTC+00:00)

Cosmos 2151 - Pass Details

Date: 20 June 2021
Orbit: 582 x 600 km, 82.5° (Epoch: 29 July)

Event Time Altitude Azimuth Distance (km) Brightness Sun altitude
Exits shadow 09:47:46 24° 288° (WNW) 1,232 4.4 -20.4°
Drops below altitude 10° 09:50:58 10° 338° (NNW) 1,908 5.9 -20.0°
Sets 09:53:30 0° 352° (N) 2,810 7.1 -19.7°
